Kuchera_Ratio
0.0 0.0 0.0 0.0 0.0 0.0 0.0 0.0 0.0 0.0 0.0 0.0 0.0 0.0 0.0 0.0 0.0 0.0 0.0 0.0 0.0 0.0 0.0 0.0 0.0 0.0 0.0 0.0 0.0 0.0 0.0 0.0 0.0 0.0 0.0 0.0 0.0 0.0 0.0 0.0 0.0 0.0 0.0 0.0 0.0 0.0 0.0
0.0 0.0 0.0 0.0 0.0 0.0 0.0 0.0 0.0 0.0 0.0 0.0 0.0 0.0 0.0 0.0 0.0 0.0 0.0 0.0 0.0 0.0 0.0 0.0 0.0 0.0 0.0 0.0 0.0 0.0 0.0 0.0 0.0 0.0 0.0 0.0 0.0 0.0 0.0 0.0 0.0 0.0 0.0 0.0 0.0 0.0 0.0
0.0 0.0 0.0 0.0 0.0 0.0 0.0 0.0 0.0 0.0 0.0 0.0 0.0 0.0 0.0 0.0 0.0 0.0 0.0 0.0 0.0 0.0 0.0 0.0 0.0 0.0 0.0 0.0 0.0 0.0 0.0 0.0 0.0 0.0 0.0 0.0 0.0 0.0 0.0 0.0 0.0 0.0 0.0 0.0 0.0 0.0 0.0
0.0 0.0 0.0 0.0 0.0 0.0 0.0 0.0 0.0 0.0 0.0 0.0 0.0 0.0 0.0 0.0 0.0 0.0 0.0 0.0 0.0 0.0 0.0 0.0 0.0 0.0 0.0 0.0 0.0 0.0 0.0 0.0 0.0 0.0 0.0 0.0 0.0 0.0 0.0 0.0 0.0 0.0 0.0 0.0 0.0 0.0 0.0
0.0 0.0 0.0 0.0 0.0 0.0 0.0 0.0 0.0 0.0 0.0 0.0 0.0 0.0 0.0 0.0 0.0 0.0 0.0 0.0 0.0 0.0 0.0 0.0 0.0 0.0 0.0 0.0 0.0 0.0 0.0 0.0 0.0 0.0 0.0 0.0 0.0 0.0 0.0 0.0 0.0 0.0 0.0 0.0 0.0 0.0 0.0
0.0 0.0 0.0 0.0 0.0 0.0 0.0 0.0 0.0 0.0 0.0 0.0 0.0 0.0 0.0 0.0 0.0 0.0 0.0 0.0 0.0 0.0 0.0 0.0 0.0 0.0 0.0 0.0 0.0 0.0 0.0 0.0 0.0 0.0 0.0 0.0 0.0 0.0 0.0 0.0 2.2 0.0 0.0 0.0 0.0 0.0 0.0
0.0 0.0 0.0 0.0 0.0 0.0 0.0 0.0 0.0 0.0 0.0 0.0 0.0 0.0 0.0 0.0 0.0 0.0 0.0 0.0 0.0 0.0 0.0 0.0 0.0 0.0 0.0 0.0 0.0 0.0 0.0 0.0 0.0 0.0 0.0 0.0 0.0 0.0 0.0 0.0 0.0 0.0 0.0 0.0 0.0 0.0 0.0
0.0 0.0 0.0 0.0 0.0 0.0 0.0 0.0 0.0 0.0 0.0 0.0 0.0 0.0 0.0 0.0 0.0 0.0 0.0 0.0 0.0 0.0 0.0 0.0 0.0 0.0 0.0 0.0 0.0 0.0 0.0 0.0 0.0 0.0 0.0 0.0 0.3 0.0 0.0 0.0 0.0 0.0 0.0 0.0 0.0 0.0 0.0
0.0 0.0 0.0 0.0 0.0 0.0 0.0 0.0 0.0 0.0 0.0 0.0 0.0 0.0 0.0 0.0 0.0 0.0 0.0 0.0 0.0 0.0 0.0 0.0 0.0 0.0 0.0 0.0 0.0 0.0 0.0 0.0 0.0 0.0 0.0 0.0 0.0 0.0 0.0 0.0 0.0 0.0 1.9 2.3 3.4 0.0 0.0
0.0 0.0 0.0 0.0 0.0 0.0 0.0 0.0 0.0 0.0 0.0 0.0 0.0 0.0 0.0 0.0 0.0 0.0 0.0 0.0 0.0 0.0 0.0 0.0 0.0 0.0 0.0 0.0 0.0 0.0 0.0 0.0 0.0 0.0 0.0 0.0 0.0 0.0 0.0 0.0 0.6 1.2 0.0 0.0 1.0 3.9 5.7
0.0 0.0 0.0 0.0 0.0 0.0 0.0 0.0 0.0 0.0 0.0 0.0 0.0 0.0 0.0 0.0 0.0 0.0 0.0 0.0 0.0 0.0 4.8 0.0 0.0 0.0 0.0 0.0 0.0 0.0 0.0 0.0 0.0 0.0 0.0 2.0 0.4 0.0 0.0 3.6 0.3 3.8 0.1 1.5 0.3 6.3 5.2
0.0 0.0 0.0 0.0 0.0 0.0 0.0 0.0 0.0 0.0 0.0 0.0 0.0 0.0 0.0 0.0 0.0 0.0 0.0 0.0 0.0 0.0 3.9 0.0 0.0 0.0 0.0 0.0 0.0 0.0 0.0 0.0 0.0 0.0 0.0 2.3 0.0 0.0 2.3 0.0 0.0 0.0 2.1 0.9 0.3 5.6 12.1
0.0 0.0 0.0 0.0 0.0 0.0 0.0 0.0 0.0 0.0 0.0 0.0 0.0 0.0 0.0 0.0 0.0 0.0 0.0 0.0 0.0 3.2 0.0 0.0 0.0 0.0 0.0 0.0 0.0 0.0 0.0 0.0 0.0 3.4 3.1 1.0 4.2 0.0 0.0 2.1 1.5 3.1 5.4 10.8 13.0 12.6 12.9
0.0 0.0 0.0 0.0 0.0 0.0 0.0 0.0 0.0 0.0 0.0 0.0 0.0 0.0 0.0 0.0 0.0 0.0 0.0 0.0 3.7 0.0 0.0 0.0 0.0 0.0 0.0 0.0 0.0 0.0 0.0 0.8 0.0 0.0 0.7 4.2 7.1 5.5 0.0 5.1 6.6 7.3 6.8 11.2 14.5 13.7 13.5
0.0 0.0 0.0 0.0 0.0 0.0 0.0 0.0 0.0 0.0 0.0 0.0 0.0 0.0 0.0 0.0 0.0 0.0 0.0 0.0 0.0 0.0 0.0 0.0 0.0 0.0 0.2 0.0 0.0 0.0 0.0 0.0 0.0 0.1 2.9 1.3 8.7 5.4 1.4 0.0 3.8 7.7 6.8 3.3 11.8 10.8 14.3
0.0 0.0 0.0 0.0 0.0 0.0 0.0 0.0 0.0 0.0 0.0 0.0 0.0 0.0 0.0 0.0 0.0 0.0 0.0 0.0 0.0 0.0 0.0 0.0 0.0 0.0 0.0 0.1 1.9 0.7 0.0 0.0 2.2 0.0 0.0 1.0 8.8 6.5 6.9 0.9 0.0 5.8 5.4 12.5 12.1 16.3 16.5
0.0 0.0 0.0 0.0 0.0 0.0 0.0 0.0 0.0 0.0 0.0 0.0 0.0 0.0 0.0 0.0 0.0 0.0 0.4 0.0 0.0 0.0 0.0 0.0 0.0 0.0 0.0 0.0 0.0 0.0 0.0 3.2 0.0 0.8 0.0 0.0 4.4 11.8 8.7 10.8 10.0 11.2 10.7 10.2 10.0 13.1 16.7
0.0 0.0 0.0 0.0 0.0 0.0 0.0 0.0 0.0 0.0 0.0 0.0 0.0 0.5 0.0 0.0 0.0 0.0 0.6 0.0 0.0 0.0 0.0 0.0 0.0 0.0 0.0 0.0 1.7 0.6 2.4 3.0 0.0 0.0 1.5 2.8 5.8 10.3 9.4 9.2 4.7 8.5 10.9 9.2 13.5 14.3 13.9
0.0 0.0 0.0 0.0 0.0 0.0 0.0 0.0 0.0 0.0 0.0 0.0 0.0 0.3 0.0 0.0 4.4 6.0 0.0 0.0 0.0 0.0 0.0 0.0 0.0 0.0 0.0 0.0 3.2 0.0 4.3 4.3 1.3 1.2 4.6 3.9 8.9 13.0 12.4 13.0 11.6 12.5 8.8 10.9 11.4 12.8 14.8
0.0 0.0 0.0 0.0 0.0 0.0 0.0 0.0 0.0 0.0 0.0 0.0 0.0 5.7 2.6 0.0 2.0 0.5 1.1 0.1 0.3 0.0 0.0 0.0 0.0 0.0 0.6 2.1 3.0 5.5 6.9 4.8 4.3 3.9 0.0 3.3 8.8 8.3 12.6 12.9 11.3 12.5 12.5 11.5 12.3 15.1 14.6
0.0 0.0 0.0 0.0 0.0 0.0 0.0 0.0 0.0 0.0 0.0 0.0 0.0 2.0 0.4 8.1 7.6 3.3 0.0 0.0 3.0 5.1 0.0 0.0 3.0 0.9 0.2 4.9 5.6 6.1 7.5 7.9 5.0 3.9 5.2 6.5 11.8 12.1 9.8 10.7 10.8 13.0 12.2 12.4 13.2 11.4 15.3
0.0 0.0 0.0 0.0 0.0 0.0 0.0 0.0 0.0 0.0 0.0 0.0 0.0 1.7 1.8 3.5 0.0 3.4 2.0 5.7 3.6 2.0 3.0 3.7 3.8 1.2 0.9 4.7 1.7 6.1 5.8 8.1 6.3 7.5 9.1 9.3 13.7 14.0 13.5 12.4 14.3 15.1 13.3 13.3 13.2 13.1 14.3
0.0 0.0 0.0 0.0 0.0 0.0 0.0 0.0 0.0 0.0 0.0 0.0 0.0 0.0 0.0 2.8 3.3 4.3 5.2 3.7 2.2 2.5 3.9 2.9 0.6 2.7 4.7 3.5 3.2 2.9 4.4 4.8 6.2 6.9 11.2 10.6 13.4 15.1 16.5 15.2 15.2 15.4 10.3 10.7 10.7 12.0 11.9
0.0 0.0 0.0 0.0 0.0 0.0 0.0 0.0 0.0 0.0 0.0 0.0 0.0 0.0 0.0 6.5 4.0 3.5 2.8 0.3 1.4 1.1 6.5 7.2 2.6 2.3 6.1 4.9 6.6 7.2 8.1 8.9 10.3 10.4 11.2 12.9 13.3 14.4 17.4 15.3 18.0 10.0 9.2 9.2 10.2 10.2 10.1
0.0 0.0 0.0 0.0 0.0 0.0 0.0 0.0 0.0 0.0 0.0 0.0 0.0 0.0 0.0 4.7 3.5 3.2 2.0 6.1 6.7 7.9 9.0 9.2 8.2 5.7 4.4 7.1 8.3 12.4 13.2 13.1 14.0 14.6 14.6 13.2 11.3 15.1 17.8 17.6 13.4 10.7 8.5 12.3 12.3 11.4 8.7
0.0 0.0 0.0 0.0 0.0 0.0 0.0 0.0 0.0 0.0 0.0 0.0 0.0 0.0 0.0 3.2 5.9 2.6 5.9 3.7 8.7 9.8 10.9 10.6 10.3 9.7 9.4 6.2 8.5 13.6 14.9 13.4 15.1 14.7 14.4 15.2 14.9 15.1 17.2 18.7 17.4 12.9 12.0 12.6 13.3 15.2 12.2
0.0 0.0 0.0 0.0 0.0 0.0 0.0 0.0 0.0 0.0 0.0 0.0 0.0 0.0 0.0 3.8 7.5 5.2 5.5 4.8 4.7 8.7 10.6 10.0 12.0 12.9 11.2 10.6 13.3 13.7 13.4 13.4 14.7 14.5 14.2 16.5 16.8 17.4 16.6 18.8 16.2 12.3 12.5 13.2 17.5 13.5 12.6
0.0 0.0 0.0 0.0 0.0 0.0 0.0 0.0 0.0 0.0 0.0 0.0 0.0 0.0 0.0 4.2 8.5 8.0 6.3 6.3 7.6 7.0 8.7 11.2 12.1 12.9 12.8 11.7 12.1 13.1 13.8 13.9 14.8 14.8 14.5 14.3 15.7 17.4 17.5 18.0 19.0 13.1 14.7 14.6 12.4 13.1 14.5
0.0 0.0 0.0 0.0 0.0 0.0 0.0 0.0 0.0 0.0 0.0 0.0 0.0 0.0 0.0 0.2 8.3 9.0 8.4 7.3 5.7 5.8 7.0 9.2 8.0 8.2 8.1 10.0 9.4 10.5 14.8 15.1 15.1 14.9 15.0 15.2 13.0 14.3 13.9 14.3 11.7 12.5 11.0 12.5 14.1 15.4 16.6